When you browse on this site, cookies collect data to enhance your experience and personalize the content and advertising you see.
Visit our Privacy Policy to learn more. By continuing to use the site, you agree to this use of cookies and data.
  • In Lithuania
  • List of Countries
  • For 7 days
  • Water Temperature
  • Weather Map
  • Weather Widgets
  • user-avatar
    Login

    Hourly Weather Yulara

    Today, 21 October, Monday

    Time Temperature Precipitation Wind Pressure Humidity
    00:00 +22°C° 0 mm 3 mps 721 mmHg 21%
    01:00 +22°C° 0 mm 4 mps 721 mmHg 21%
    02:00 +21°C° 0 mm 5 mps 721 mmHg 22%
    03:00 +20°C° 0 mm 5 mps 721 mmHg 22%
    04:00 +20°C° 0 mm 5 mps 721 mmHg 21%
    05:00 +20°C° 0 mm 5 mps 722 mmHg 20%
    06:00 +19°C° 0 mm 4 mps 722 mmHg 18%
    07:00 +22°C° 0 mm 6 mps 722 mmHg 16%
    08:00 +24°C° 0 mm 7 mps 722 mmHg 14%
    09:00 +27°C° 0 mm 9 mps 723 mmHg 12%
    10:00 +28°C° 0 mm 8 mps 722 mmHg 12%
    11:00 +30°C° 0 mm 6 mps 722 mmHg 12%
    12:00 +33°C° 0 mm 5 mps 722 mmHg 11%
    13:00 +33°C° 0 mm 5 mps 721 mmHg 12%
    14:00 +34°C° 0 mm 5 mps 721 mmHg 12%
    15:00 +34°C° 0 mm 4 mps 720 mmHg 12%
    16:00 +33°C° 0 mm 5 mps 720 mmHg 13%
    17:00 +32°C° 0 mm 5 mps 720 mmHg 14%
    18:00 +30°C° 0 mm 5 mps 720 mmHg 16%
    19:00 +28°C° 0 mm 5 mps 720 mmHg 19%
    20:00 +26°C° 0 mm 5 mps 720 mmHg 22%
    21:00 +23°C° 0 mm 6 mps 721 mmHg 26%
    22:00 +23°C° 0 mm 5 mps 720 mmHg 23%
    23:00 +22°C° 0 mm 5 mps 720 mmHg 20%

    Tomorrow, 22 October, Tuesday

    Time Temperature Precipitation Wind Pressure Humidity
    00:00 +21°C° 0 mm 4 mps 720 mmHg 18%
    01:00 +20°C° 0 mm 4 mps 719 mmHg 18%
    02:00 +19°C° 0 mm 4 mps 719 mmHg 17%
    03:00 +18°C° 0 mm 4 mps 719 mmHg 17%
    04:00 +18°C° 0 mm 4 mps 719 mmHg 18%
    05:00 +17°C° 0 mm 4 mps 719 mmHg 18%
    06:00 +17°C° 0 mm 3 mps 719 mmHg 19%
    07:00 +20°C° 0 mm 4 mps 720 mmHg 16%
    08:00 +25°C° 0 mm 5 mps 720 mmHg 13%
    09:00 +28°C° 0 mm 6 mps 721 mmHg 10%
    10:00 +30°C° 0 mm 5 mps 720 mmHg 10%
    11:00 +33°C° 0 mm 5 mps 720 mmHg 10%
    12:00 +34°C° 0 mm 4 mps 719 mmHg 11%
    13:00 +35°C° 0 mm 4 mps 719 mmHg 11%
    14:00 +36°C° 0 mm 3 mps 718 mmHg 11%
    15:00 +36°C° 0 mm 3 mps 717 mmHg 11%
    16:00 +35°C° 0 mm 3 mps 717 mmHg 11%
    17:00 +34°C° 0 mm 3 mps 717 mmHg 12%
    18:00 +33°C° 0 mm 4 mps 717 mmHg 13%
    19:00 +30°C° 0 mm 4 mps 717 mmHg 14%
    20:00 +28°C° 0 mm 4 mps 718 mmHg 15%
    21:00 +26°C° 0 mm 5 mps 718 mmHg 16%
    22:00 +23°C° 0 mm 4 mps 718 mmHg 16%
    23:00 +22°C° 0 mm 4 mps 718 mmHg 16%

    Day after tomorrow, 23 October, Wednesday

    Time Temperature Precipitation Wind Pressure Humidity
    00:00 +21°C° 0 mm 4 mps 718 mmHg 16%
    01:00 +21°C° 0 mm 4 mps 718 mmHg 16%
    02:00 +20°C° 0 mm 4 mps 717 mmHg 16%
    03:00 +19°C° 0 mm 4 mps 717 mmHg 17%
    04:00 +19°C° 0 mm 3 mps 717 mmHg 17%
    05:00 +19°C° 0 mm 3 mps 717 mmHg 18%
    06:00 +18°C° 0 mm 3 mps 717 mmHg 18%
    07:00 +22°C° 0 mm 3 mps 718 mmHg 15%
    08:00 +27°C° 0 mm 4 mps 718 mmHg 12%
    09:00 +32°C° 0 mm 5 mps 719 mmHg 9%
    10:00 +34°C° 0 mm 4 mps 718 mmHg 9%
    11:00 +36°C° 0 mm 4 mps 718 mmHg 9%
    12:00 +37°C° 0 mm 3 mps 718 mmHg 9%
    13:00 +38°C° 0 mm 2 mps 717 mmHg 9%
    14:00 +37°C° 0 mm 1 mps 716 mmHg 9%
    15:00 +35°C° 0 mm 0 mps 715 mmHg 9%
    16:00 +36°C° 0 mm 1 mps 715 mmHg 11%
    17:00 +34°C° 0 mm 1 mps 715 mmHg 13%
    18:00 +33°C° 0 mm 1 mps 715 mmHg 15%
    19:00 +31°C° 0 mm 2 mps 715 mmHg 15%
    20:00 +30°C° 0 mm 2 mps 715 mmHg 15%
    21:00 +28°C° 0 mm 2 mps 716 mmHg 15%
    22:00 +27°C° 0 mm 2 mps 715 mmHg 15%
    23:00 +26°C° 0 mm 2 mps 715 mmHg 15%

    24 October, Thursday

    Time Temperature Precipitation Wind Pressure Humidity
    00:00 +24°C° 0 mm 2 mps 715 mmHg 16%
    01:00 +24°C° 0 mm 3 mps 715 mmHg 15%
    02:00 +22°C° 0 mm 3 mps 714 mmHg 15%
    03:00 +22°C° 0 mm 3 mps 714 mmHg 15%
    04:00 +21°C° 0 mm 3 mps 714 mmHg 20%
    05:00 +21°C° 0 mm 2 mps 714 mmHg 25%
    06:00 +20°C° 0 mm 2 mps 715 mmHg 30%
    07:00 +26°C° 0 mm 4 mps 715 mmHg 27%
    08:00 +30°C° 0 mm 6 mps 716 mmHg 23%
    09:00 +35°C° 0 mm 8 mps 716 mmHg 20%
    10:00 +38°C° 0 mm 8 mps 716 mmHg 17%
    11:00 +40°C° 0 mm 8 mps 716 mmHg 14%
    12:00 +41°C° 0 mm 8 mps 715 mmHg 10%
    13:00 +41°C° 0 mm 8 mps 715 mmHg 10%
    14:00 +41°C° 0 mm 8 mps 714 mmHg 10%
    15:00 +43°C° 0 mm 8 mps 714 mmHg 10%
    16:00 +40°C° 0 mm 7 mps 714 mmHg 11%
    17:00 +39°C° 0 mm 6 mps 714 mmHg 12%
    18:00 +37°C° 0 mm 5 mps 713 mmHg 12%
    19:00 +34°C° 0.1 mm 4 mps 714 mmHg 18%
    20:00 +30°C° 0.1 mm 3 mps 714 mmHg 23%
    21:00 +27°C° 0.1 mm 2 mps 714 mmHg 28%
    22:00 +26°C° 0 mm 2 mps 714 mmHg 31%
    23:00 +25°C° 0 mm 2 mps 714 mmHg 34%

    25 October, Friday

    Time Temperature Precipitation Wind Pressure Humidity
    00:00 +23°C° 0 mm 2 mps 714 mmHg 36%
    01:00 +22°C° 0 mm 3 mps 714 mmHg 39%
    02:00 +22°C° 0 mm 4 mps 714 mmHg 42%
    03:00 +21°C° 0 mm 5 mps 714 mmHg 44%
    04:00 +20°C° 0 mm 5 mps 715 mmHg 50%
    05:00 +19°C° 0 mm 6 mps 715 mmHg 55%
    06:00 +17°C° 0 mm 6 mps 716 mmHg 60%
    07:00 +21°C° 0 mm 6 mps 716 mmHg 52%
    08:00 +23°C° 0 mm 6 mps 717 mmHg 44%
    09:00 +27°C° 0 mm 7 mps 717 mmHg 36%
    10:00 +29°C° 0 mm 6 mps 717 mmHg 32%
    11:00 +32°C° 0 mm 6 mps 717 mmHg 28%
    12:00 +34°C° 0 mm 5 mps 716 mmHg 24%
    13:00 +35°C° 0 mm 4 mps 716 mmHg 22%
    14:00 +36°C° 0 mm 3 mps 715 mmHg 20%
    15:00 +37°C° 0 mm 2 mps 714 mmHg 19%
    16:00 +36°C° 0 mm 2 mps 714 mmHg 19%
    17:00 +36°C° 0 mm 3 mps 715 mmHg 19%
    18:00 +35°C° 0 mm 4 mps 715 mmHg 19%
    19:00 +33°C° 0.2 mm 4 mps 715 mmHg 24%
    20:00 +29°C° 0.2 mm 5 mps 716 mmHg 29%
    21:00 +27°C° 0.2 mm 6 mps 717 mmHg 34%
    22:00 +26°C° 0 mm 6 mps 717 mmHg 32%
    23:00 +24°C° 0 mm 6 mps 717 mmHg 30%

    26 October, Saturday

    Time Temperature Precipitation Wind Pressure Humidity
    00:00 +24°C° 0 mm 6 mps 717 mmHg 27%
    01:00 +22°C° 0 mm 6 mps 717 mmHg 27%
    02:00 +21°C° 0 mm 6 mps 717 mmHg 26%
    03:00 +19°C° 0 mm 6 mps 717 mmHg 25%
    04:00 +19°C° 0 mm 6 mps 717 mmHg 25%
    05:00 +17°C° 0 mm 6 mps 718 mmHg 24%
    06:00 +16°C° 0 mm 6 mps 718 mmHg 23%
    07:00 +18°C° 0 mm 7 mps 719 mmHg 22%
    08:00 +21°C° 0 mm 8 mps 719 mmHg 22%
    09:00 +23°C° 0 mm 9 mps 720 mmHg 21%
    10:00 +26°C° 0 mm 8 mps 719 mmHg 20%
    11:00 +28°C° 0 mm 7 mps 719 mmHg 19%
    12:00 +30°C° 0 mm 7 mps 719 mmHg 18%
    13:00 +32°C° 0 mm 6 mps 718 mmHg 18%
    14:00 +33°C° 0 mm 5 mps 718 mmHg 17%
    15:00 +33°C° 0 mm 5 mps 717 mmHg 17%
    16:00 +33°C° 0 mm 4 mps 717 mmHg 17%
    17:00 +32°C° 0 mm 4 mps 717 mmHg 18%
    18:00 +30°C° 0 mm 4 mps 717 mmHg 19%
    19:00 +28°C° 0 mm 4 mps 717 mmHg 21%
    20:00 +26°C° 0 mm 4 mps 718 mmHg 24%
    21:00 +23°C° 0 mm 4 mps 718 mmHg 26%
    22:00 +22°C° 0 mm 5 mps 718 mmHg 27%
    23:00 +21°C° 0 mm 6 mps 718 mmHg 28%
    Show more